Location: Centerville
(32.8776°N, 96.6203°W)
Time: 10:41:00
(UTC+00:00)

Cosmos 2237 - Pass Details

Date: 23 October 2021
Orbit: 845 x 856 km, 70.8° (Epoch: 08 December)

Event Time Altitude Azimuth Distance (km) Brightness Sun altitude
Rises 00:32:11 0° 186° (S) 3,398 7.5 -10.6°
Reaches altitude 10° 00:34:40 10° 182° (S) 2,467 6.7 -11.1°
Maximum altitude 00:40:09 53° 106° (ESE) 1,041 4.3 -12.3°
Drops below altitude 10° 00:45:41 10° 31° (NNE) 2,487 6.3 -13.4°
Sets 00:48:12 0° 27° (NNE) 3,428 7.1 -13.9°
